Regional Weather Roundup
Issued by NWS

Home | Current Version | Previous Version | Graphics & Text | Print | Product List | Glossary On
Versions: 1 2 3 4 5 6 7 8 9 10 11 12 13 14 15 16 17 18 19 20 21 22 23 24 25 26 27 28 29 30 31 32 33 34 35 36 37 38 39 40 41 42 43 44 45 46 47 48 49 50
000
ASUS45 KCYS 230710
RWRWY

WYOMING REGIONAL WEATHER ROUNDUP
NATIONAL WEATHER SERVICE CHEYENNE WY
100 AM MDT TUE MAY 23 2017

NOTE:  "FAIR" INDICATES FEW OR NO CLOUDS BELOW 12,000 FEET
WITH NO SIGNIFICANT WEATHER AND/OR OBSTRUCTIONS TO VISIBILITY.

WYZ001-230800-
YELLOWSTONE NATIONAL PARK

CITY           SKY/WX    TMP DP  RH WIND       PRES   REMARKS
LK YELLOWSTONE   N/A     29  28  96 CALM      30.37S
W YELLOWSTONE  NOT AVBL

$$
WYZ002>013-054>058-071-098>099-230800-
NORTHERN WYOMING

CITY           SKY/WX    TMP DP  RH WIND       PRES   REMARKS
JACKSON        FAIR      43  34  70 N9        30.31S
CODY           FAIR      46  37  71 SW7       30.27F
GREYBULL       FAIR      43  39  86 SE3       30.23R
WORLAND        FAIR      38  38 100 SE5       30.24S WCI  34
SHERIDAN       MOCLDY    39  36  89 S3        30.23S
BUFFALO        MOCLDY    46  36  68 CALM      30.25F
GILLETTE       CLOUDY    44  41  89 W8        30.21F
HULETT         FAIR      41  36  81 CALM      30.20F
NEWCASTLE      FAIR      36  36 100 N7        30.20F WCI  30

$$
WYZ014>020-022>026-101>103-230800-
CENTRAL WYOMING

CITY           SKY/WX    TMP DP  RH WIND       PRES   REMARKS
BIG PINEY      FAIR      38  33  82 S8        30.34S WCI  32
PINEDALE       FAIR      41  30  65 E7        30.35R
DUBOIS         NOT AVBL
LANDER         FAIR      41  33  73 SW10      30.29F
RIVERTON       FAIR      40  36  86 W10       30.29F WCI  33
CASPER         FAIR      38  36  92 SW9       30.26F WCI  31
DOUGLAS        CLOUDY    41  38  89 NW9       30.25F

$$
WYZ021-027>030-104>119-230800-
SOUTHERN WYOMING

CITY           SKY/WX    TMP DP  RH WIND       PRES   REMARKS
EVANSTON       CLOUDY    45  36  70 E13       30.32S
KEMMERER         N/A     41  34  75 SE5       30.37
FORT BRIDGER   CLOUDY    45  36  70 SE10      30.37
ROCK SPRINGS   CLOUDY    40  34  79 S5        30.35S
RAWLINS        FAIR      33  31  92 SW6       30.33F WCI  28
SARATOGA       LGT RAIN  34  34 100 CALM      30.36R
LARAMIE        FAIR      32  30  92 NW8       30.28S WCI  25
CHEYENNE       LGT RAIN  38  34  85 N21G33    30.26R WCI  28
TORRINGTON     MOCLDY    42  38  85 NW9       30.19F

$$



USA.gov is the U.S. government's official web portal to all federal, state and local government web resources and services.